Location: *
(50.8512°N, 5.6907°E)
Time: 08:18:28
(UTC+00:00)

Cosmos 1486 Rocket - Pass Details

Date: 09 April 2020
Orbit: 758 x 784 km, 74.1° (Epoch: 01 June)

Event Time Altitude Azimuth Distance (km) Brightness Sun altitude
Exits shadow 22:22:37 56° 34° (NE) 911 4.4 -28.9°
Drops below altitude 10° 22:26:48 10° 26° (NNE) 2,328 7.0 -29.1°
Sets 22:29:12 0° 26° (NNE) 3,263 7.9 -29.2°
